User: anonymous   Login
Location: Unspecified
(0.0000°N, 0.0000°E)
Time: 19:44:28
(UTC+00:00)
Language:

EXOCUBE - Orbit

View from above orbital plane
View from above orbital plane
View from above satellite
View from above satellite

Ground track
Ground track

The orbit data is extracted from the following two-line orbital elements,

1 40380U 15003E   19340.52670566  .00001040  00000-0  50463-4 0  9995
2 40380  99.1265 345.2123 0138024 275.1353  83.4133 15.13906432267217
Epoch (UTC): 06 December 2019 12:38:27
Eccentricity: 0.0138024
inclination: 99.1265°
perigee height: 429 km
apogee height: 619 km
right ascension of ascending node: 345.2123°
argument of perigee: 275.1353°
revolutions per day: 15.13906432
mean anomaly at epoch: 83.4133°
orbit number at epoch: 26721

The dashed part of the orbit path shows where the satellite is in the earth's shadow,  

DLR